Simultaneous Nadir Overpasses (SNOs) Predictions

Prediction of SNOs between METOP-B and NPP Satellite Orbit:

Table of predicted SNOs for the next 14.0 days since TLE Epoch: 10/3/2019
Index Date (METOP-B) Time (METOP-B) Lat,Lon (METOP-B) SZA (METOP-B ) Date (NPP) Time (NPP) Lat,Lon (NPP) SZA (NPP ) Distance(km) Time Diff (sec)
1 10/17/2019 18:38:06 -73.57, 73.87 97.16 10/17/2019 18:36:59 -73.58, 70.93 97.07 92.49 67
2 10/17/2019 19:28:50 73.33,-119.34 82.63 10/17/2019 19:27:40 73.35,-121.23 82.70 60.27 70
3 10/17/2019 20:19:33 -73.29, 47.91 97.40 10/17/2019 20:18:23 -73.29, 46.22 97.35 54.27 70
4 10/17/2019 21:10:17 73.05,-145.28 82.39 10/17/2019 21:09:04 73.05,-145.95 82.41 21.86 73




NCC Satellite Simultaneous Nadir Overpasses (SNOs) Prediction Service
